Regional Weather Roundup
Issued by NWS

Home | Current Version | Previous Version | Text Only | Print | Product List | Glossary On
Versions: 1 2 3 4 5 6 7 8 9 10 11 12 13 14 15 16 17 18 19 20 21 22 23 24 25 26 27 28 29 30 31 32 33 34 35 36 37 38 39 40 41 42 43 44 45 46 47 48 49 50
000
ASUS44 KFWD 110603
RWRTX
NORTH TEXAS HOURLY WEATHER ROUNDUP
NATIONAL WEATHER SERVICE FORT WORTH TX
1200 AM CST SUN DEC 11 2016

NOTE: "FAIR" INDICATES FEW OR NO CLOUDS BELOW 12,000 FEET WITH NO
SIGNIFICANT WEATHER AND/OR OBSTRUCTIONS TO VISIBILITY.

TXZ118-119-110700-
DALLAS/FORT WORTH METROPLEX

CITY           SKY/WX    TMP DP  RH WIND       PRES   REMARKS
DFW AIRPORT    CLOUDY    49  36  61 S20G26    30.11F
6HR MIN TEMP:  47; 6HR MAX TEMP:  49;

DALLAS LOVE    CLOUDY    49  33  54 S16G24    30.13F
6HR MIN TEMP:  48; 6HR MAX TEMP:  49;

FTW MEACHAM    CLOUDY    49  39  68 S18       30.10F
6HR MIN TEMP:  48; 6HR MAX TEMP:  50;

DAL-EXECUTIVE  CLOUDY    48  35  60 S10       30.13F
6HR MIN TEMP:  47; 6HR MAX TEMP:  48;

FTW-ALLIANCE   CLOUDY    48  38  68 S13G23    30.09F
6HR MIN TEMP:  47; 6HR MAX TEMP:  48;

FTW-NAS-JRB    CLOUDY    50  41  71 S17G26    30.11F
6HR MIN TEMP:  49; 6HR MAX TEMP:  50;

FTW-SPINKS     CLOUDY    48  40  73 S12       30.13F
6HR MIN TEMP:  47; 6HR MAX TEMP:  48;

ARLINGTON      CLOUDY    49  37  63 SE17G24   30.12F
6HR MIN TEMP:  48; 6HR MAX TEMP:  49;

GRAND PRAIRIE  CLOUDY    48  36  62 S12G20    30.15F
6HR MIN TEMP:  47; 6HR MAX TEMP:  48;

ADDISON        CLOUDY    49  36  61 S14G21    30.14F
6HR MIN TEMP:  47; 6HR MAX TEMP:  49;

MESQUITE       CLOUDY    47  31  53 S13       30.16F
6HR MIN TEMP:  46; 6HR MAX TEMP:  47;

LANCASTER      CLOUDY    49  32  52 S10       30.16F
6HR MIN TEMP:  47; 6HR MAX TEMP:  49;

$$

TXZ091>094-102>105-117-120-121-131>134-110700-
NORTH CENTRAL TEXAS

CITY           SKY/WX    TMP DP  RH WIND       PRES   REMARKS
SHRMAN/DENISON CLOUDY    47  35  61 S18G25    30.08F
6HR MIN TEMP:  46; 6HR MAX TEMP:  47;

GAINESVILLE    CLOUDY    47  36  66 S21G29    30.08F WCI  39
6HR MIN TEMP:  46; 6HR MAX TEMP:  47;

BOWIE          CLOUDY    47  42  81 S22       30.02F WCI  40
6HR MIN TEMP:  45; 6HR MAX TEMP:  47;

BRIDGEPORT     CLOUDY    48  44  85 S13G18    30.09F
6HR MIN TEMP:  47; 6HR MAX TEMP:  48;

DECATUR        CLOUDY    47  39  75 S13G20    30.07F
6HR MIN TEMP:  46; 6HR MAX TEMP:  47;

DENTON         CLOUDY    48  38  68 S21G29    30.09F
6HR MIN TEMP:  47; 6HR MAX TEMP:  48;

MCKINNEY       CLOUDY    48  32  53 S22G30    30.12F
6HR MIN TEMP:  46; 6HR MAX TEMP:  48;

BONHAM         CLOUDY    46  28  49 S20G25    30.12F WCI  39
GREENVILLE     CLOUDY    48  27  43 S17       30.15F
ROCKWALL       CLOUDY    48  31  52 SE17G23   30.14F
6HR MIN TEMP:  46; 6HR MAX TEMP:  48;

TERRELL        CLOUDY    48  31  51 S13       30.17F
6HR MIN TEMP:  47; 6HR MAX TEMP:  48;

WAXAHACHIE     CLOUDY    47  37  68 S12G17    30.16F
6HR MIN TEMP:  46; 6HR MAX TEMP:  47;

CLEBURNE       CLOUDY    48  46  93 S14G21    30.13F
GRANBURY       CLOUDY    50  44  80 SE8G16    30.12F
6HR MIN TEMP:  49; 6HR MAX TEMP:  50;

$$

TXZ083>090-098>101-113>116-127>130-139>142-154-155-110700-
WESTERN NORTH TEXAS

CITY           SKY/WX    TMP DP  RH WIND       PRES   REMARKS
WICHITA FALLS  CLOUDY    51  45  79 S24G35    29.97S
6HR MIN TEMP:  45; 6HR MAX TEMP:  52;

WF-KICKAPOO    CLOUDY    51  46  83 S22G31    29.98S
6HR MIN TEMP:  44; 6HR MAX TEMP:  52;

VERNON         CLOUDY    53  44  73 S18G28    29.93F
6HR MIN TEMP:  28; 6HR MAX TEMP:  58;

ABILENE        CLOUDY    52  49  89 S23G37    30.01F
6HR MIN TEMP:  50; 6HR MAX TEMP:  54;

ABILENE-DYESS  CLOUDY    53  47  80 S29G38    29.98S
6HR MIN TEMP:  52; 6HR MAX TEMP:  54;

CISCO          CLOUDY    50  48  93 S15G24    30.05F
BRECKENRIDGE   CLOUDY    54  47  80 S20G25    30.03S
6HR MIN TEMP:  52; 6HR MAX TEMP:  54;

GRAHAM         CLOUDY    50  47  92 S12G21    30.01F
6HR MIN TEMP:  49; 6HR MAX TEMP:  50;

MINERAL WELLS  CLOUDY    47  42  83 S18G25    30.07F WCI  40
6HR MIN TEMP:  47; 6HR MAX TEMP:  48;

STEPHENVILLE   CLOUDY    47  44  89 S13G21    30.12F
6HR MIN TEMP:  46; 6HR MAX TEMP:  47;

COMANCHE       CLOUDY    49  49 100 S14G24    30.10S
6HR MIN TEMP:  46; 6HR MAX TEMP:  49;

COLEMAN        CLOUDY    51  48  87 S13       30.09F
6HR MIN TEMP:  51; 6HR MAX TEMP:  54;

$$

TXZ143>147-156>162-174-175-110700-
CENTRAL TEXAS

CITY           SKY/WX    TMP DP  RH WIND       PRES   REMARKS
WACO           CLOUDY    49  45  86 S18       30.17F
6HR MIN TEMP:  49; 6HR MAX TEMP:  50;

WACO-MCGREGOR  CLOUDY    49  47  93 S14       30.16F FOG
6HR MIN TEMP:  48; 6HR MAX TEMP:  49;

HILLSBORO      CLOUDY    49  42  75 S17       30.15F
6HR MIN TEMP:  47; 6HR MAX TEMP:  49;

CORSICANA      CLOUDY    50  34  54 S10       30.20S
6HR MIN TEMP:  48; 6HR MAX TEMP:  50;

MEXIA          CLOUDY    48  32  53 S14G22    30.17F
6HR MIN TEMP:  47; 6HR MAX TEMP:  48;

HEARNE         CLOUDY    50  38  63 SE7       30.20F
6HR MIN TEMP:  50; 6HR MAX TEMP:  51;

CAMERON        CLOUDY    52  44  73 S8        30.18F
6HR MIN TEMP:  50; 6HR MAX TEMP:  52;

TEMPLE         CLOUDY    49  48  97 S13       30.17F FOG
6HR MIN TEMP:  49; 6HR MAX TEMP:  50;

KILLEEN        CLOUDY    49  48  98 S13       30.14F FOG
6HR MIN TEMP:  47; 6HR MAX TEMP:  49;

KILLEEN-SKYLRK CLOUDY    49  49 100 S10       30.16F FOG
6HR MIN TEMP:  49; 6HR MAX TEMP:  49;

FORT HOOD      CLOUDY    49  49 100 S9        30.12F
6HR MIN TEMP:  48; 6HR MAX TEMP:  49;

GATESVILLE     CLOUDY    48  48 100 S8        30.17F
HAMILTON       CLOUDY    47  47 100 S16G23    30.12F FOG
6HR MIN TEMP:  45; 6HR MAX TEMP:  47;

LAMPASAS       CLOUDY    48  47  97 S7        30.14F FOG
6HR MIN TEMP:  44; 6HR MAX TEMP:  48;

$$

TXZ095>097-106>112-122>126-135>138-148>153-164>167-110700-
EAST TEXAS

CITY           SKY/WX    TMP DP  RH WIND       PRES   REMARKS
PARIS          CLOUDY    46  30  53 S15       30.16F
6HR MIN TEMP:  45; 6HR MAX TEMP:  46;

SULPHUR SPRNGS CLOUDY    49  31  48 S13       30.18F
6HR MIN TEMP:  47; 6HR MAX TEMP:  49;

MOUNT PLEASANT CLOUDY    48  31  51 S8        30.20F
6HR MIN TEMP:  46; 6HR MAX TEMP:  48;

GILMER         CLOUDY    48  31  51 SE8G17    30.19F
6HR MIN TEMP:  45; 6HR MAX TEMP:  48;

MINEOLA        CLOUDY    50  30  46 S7        30.18F
TYLER          CLOUDY    50  29  44 S16       30.18F
6HR MIN TEMP:  47; 6HR MAX TEMP:  50;

LONGVIEW       CLOUDY    50  33  52 S12       30.21F
6HR MIN TEMP:  48; 6HR MAX TEMP:  50;

MARSHALL       CLOUDY    47  32  54 S8        30.25F
6HR MIN TEMP:  45; 6HR MAX TEMP:  47;

ATHENS         CLOUDY    46  30  53 S13       30.17F
PALESTINE      CLOUDY    50  33  52 SE9       30.21F
JACKSONVILLE   CLOUDY    48  33  56 S14       30.21F
HENDERSON      CLOUDY    49  30  48 S12       30.23F
6HR MIN TEMP:  46; 6HR MAX TEMP:  49;

CENTER         CLOUDY    51  28  41 S9        30.26F
6HR MIN TEMP:  50; 6HR MAX TEMP:  51;

NACOGDOCHES    CLOUDY    48  30  49 SE13      30.23F
6HR MIN TEMP:  48; 6HR MAX TEMP:  48;

LUFKIN         CLOUDY    48  31  51 SE9       30.24F
6HR MIN TEMP:  47; 6HR MAX TEMP:  48;

$$

SUPPLEMENTAL OBSERVATIONS (CENTRAL)

CITY           SKY/WX    TMP DP  RH WIND       PRES   REMARKS
$$

SUPPLEMENTAL OBSERVATIONS (WEST)

CITY           SKY/WX    TMP DP  RH WIND       PRES   REMARKS
$$

SUPPLEMENTAL OBSERVATIONS (EAST)

C1F1C2F2C3F3C4F4C5F5C6F6C7F7C8F8C9!


USA.gov is the U.S. government's official web portal to all federal, state and local government web resources and services.